Weather History for Marion, OH

Change the Weather History Date:

Friday, May 24, 2013

  Actual Average (KDLZ) Record (KDLZ)
Temperature  
Mean Temperature 49 °F -  
Max Temperature 57 °F 73 °F 88 °F (1964)
Min Temperature 41 °F 51 °F 32 °F (1963)
Degree Days  
Heating Degree Days 16    
Moisture  
Dew Point 37 °F    
Average Humidity 67    
Maximum Humidity 86    
Minimum Humidity 44    
Precipitation  
Precipitation 0.00 in - - ()
Sea Level Pressure  
Sea Level Pressure 30.27 in    
Wind  
Wind Speed 15 mph (North)    
Max Wind Speed 21 mph    
Max Gust Speed 30 mph    
Visibility 10 miles    
Events      
Averages and records for this station are not official NWS values.
T = Trace of Precipitation, MM = Missing Value Source: NWS Daily Summary

Daily Weather History Graph

Daily Weather History Graph

Search for Another Location

Airport:

Trip Planner

Search our weather history database for the weather conditions in past years. The results will help you decide how hot, cold, wet, or windy it might be!

Date:

Astronomy

May. 24, 2013 Rise Set
Actual Time 6:07 AM EDT 8:50 PM EDT
Civil Twilight 5:36 AM EDT 9:22 PM EDT
Nautical Twilight 4:56 AM EDT 10:02 PM EDT
Astronomical Twilight 4:10 AM EDT 10:48 PM EDT
Moon 8:31 PM EDT (5/24) 5:39 AM EDT (5/24)
Length of Visible Light 15h 46m
Length of Day
14h 42m
Full, 100% of the Moon is Illuminated
May 24
Full
May 25
Full
May 31
Last Quarter
Jun 8
New
Jun 16
First Quarter

Hourly Weather History & Observations

Time (EDT) Temp. Windchill Dew Point Humidity Pressure Visibility Wind Dir Wind Speed Gust Speed Precip Events Conditions
12:24 AM 44.6 °F 36.4 °F 39.2 °F 81% 30.11 in 10.0 mi North 20.7 mph 29.9 mph N/A   Overcast
12:53 AM 44.1 °F 35.9 °F 39.9 °F 85% 30.12 in 10.0 mi North 19.6 mph - 0.00 in   Overcast
1:53 AM 44.1 °F 37.4 °F 39.9 °F 85% 30.14 in 10.0 mi North 13.8 mph - N/A   Overcast
2:53 AM 44.1 °F 38.6 °F 39.0 °F 82% 30.14 in 10.0 mi NNW 10.4 mph - N/A   Clear
3:53 AM 43.0 °F 37.2 °F 37.0 °F 80% 30.16 in 10.0 mi NNW 10.4 mph - N/A   Clear
4:53 AM 42.1 °F 35.7 °F 37.0 °F 82% 30.19 in 10.0 mi NNW 11.5 mph - N/A   Partly Cloudy
5:53 AM 41.0 °F 34.3 °F 37.0 °F 86% 30.21 in 10.0 mi NNW 11.5 mph - N/A   Scattered Clouds
6:53 AM 43.0 °F 37.7 °F 37.9 °F 82% 30.23 in 10.0 mi NNW 9.2 mph - N/A   Overcast
7:53 AM 45.0 °F 38.9 °F 37.9 °F 76% 30.25 in 10.0 mi NNW 12.7 mph - N/A   Overcast
8:53 AM 45.0 °F 37.6 °F 37.0 °F 74% 30.27 in 10.0 mi North 17.3 mph - N/A   Mostly Cloudy
9:53 AM 46.0 °F 39.0 °F 36.0 °F 68% 30.30 in 10.0 mi North 17.3 mph - N/A   Scattered Clouds
10:53 AM 48.9 °F - 37.0 °F 64% 30.31 in 10.0 mi North 17.3 mph - N/A   Mostly Cloudy
11:12 AM 48.2 °F - 35.6 °F 62% 30.30 in 10.0 mi North 19.6 mph 26.5 mph N/A   Mostly Cloudy
11:48 AM 48.2 °F - 33.8 °F 58% 30.31 in 10.0 mi North 15.0 mph - N/A   Mostly Cloudy
11:53 AM 50.0 °F - 35.1 °F 57% 30.33 in 10.0 mi North 16.1 mph - N/A   Mostly Cloudy
12:53 PM 51.1 °F - 34.0 °F 52% 30.33 in 10.0 mi North 16.1 mph 25.3 mph N/A   Mostly Cloudy
1:53 PM 52.0 °F - 34.0 °F 50% 30.34 in 10.0 mi North 12.7 mph 21.9 mph N/A   Scattered Clouds
2:53 PM 52.0 °F - 34.0 °F 50% 30.34 in 10.0 mi North 12.7 mph - N/A   Scattered Clouds
3:53 PM 55.9 °F - 35.1 °F 45% 30.33 in 10.0 mi North 12.7 mph 21.9 mph N/A   Partly Cloudy
4:53 PM 57.0 °F - 36.0 °F 45% 30.32 in 10.0 mi North 15.0 mph 24.2 mph N/A   Partly Cloudy
5:53 PM 57.0 °F - 35.1 °F 44% 30.32 in 10.0 mi North 12.7 mph 20.7 mph N/A   Partly Cloudy
6:53 PM 55.9 °F - 37.0 °F 49% 30.30 in 10.0 mi NNE 10.4 mph - N/A   Clear
7:53 PM 53.1 °F - 37.0 °F 55% 30.30 in 10.0 mi NNE 10.4 mph - N/A   Clear
8:53 PM 48.0 °F - 37.0 °F 66% 30.31 in 10.0 mi ENE 9.2 mph - N/A   Clear
9:53 PM 45.0 °F 40.6 °F 36.0 °F 71% 30.31 in 10.0 mi ENE 8.1 mph - N/A   Clear
10:53 PM 44.1 °F 41.5 °F 36.0 °F 73% 30.34 in 10.0 mi ENE 4.6 mph - N/A   Clear
11:53 PM 42.1 °F - 36.0 °F 79% 30.35 in 10.0 mi Calm Calm - N/A   Clear